DAAW weather

Bordj Omar Driss Airport
Bordj Omar Driss, Illizi Province, Algeria

Public forecast

Using degrees Celsius for public forecast. Weather courtesy of forecast.io.

METAR (pilot weather report)

Closest report is Illizi Takhamalt Airport, 127.4 nm (236.0 km) SE. Retrieved 2019/05/20 14:10 UTC (0 seconds ago):

DAAP 201410Z 35017KT 4000 DRSA NSC 40/01 Q1008

TAF (pilot weather forecast)

Forecast is more than 12 hours old.

Closest forecast is Illizi Takhamalt Airport, 127.4 nm (236.0 km) SE. Retrieved 2017/11/09 18:03 UTC (2 years ago):

TAF TAF DAAP 091700Z 0918/1009 17010KT CAVOK